This demonstration page uses our WeatherBlox Daily Observations layout. Learn more.

Left ArrowRight Arrow

Hourly Observations for July 13, 2016

Temp ( °F °C ) Dew Point ( °F °C ) Humidity (%) Winds ( mph kmh ) Pressure ( in mb ) Visibility ( mi km ) Precip ( " mm )
12:15 am 00:15 Clear 73 22.9 66 18.8 78 78 SE 10 17 29.77 1008 10 16 N/A
12:35 am 00:35 Clear 72 22.4 66 19 81 81 SSE 9 15 29.77 1008 10 16 N/A
12:55 am 00:55 Clear 72 22.3 66 19.1 82 82 SSE 9 15 29.74 1007 10 16 N/A
1:15 am 01:15 Clear 72 22.2 67 19.6 85 85 SE 8 13 29.74 1007 10 16 N/A
1:35 am 01:35 Clear 73 22.5 68 20 86 86 SSE 9 15 29.74 1007 10 16 N/A
1:55 am 01:55 Clear 73 22.5 69 20.5 89 89 SSE 9 15 29.71 1006 10 16 N/A
2:15 am 02:15 Clear 73 22.5 69 20.7 90 90 S 9 15 29.74 1007 7 11 N/A
2:35 am 02:35 Clear 73 22.9 70 20.9 89 89 S 10 17 29.77 1008 10 16 N/A
2:55 am 02:55 Clear 74 23.1 70 21.1 89 89 S 5 7 29.77 1008 7 11 N/A
3:15 am 03:15 Clear 74 23.1 70 21.1 89 89 SE 5 7 29.77 1008 7 11 N/A
3:35 am 03:35 Partly Cloudy 73 23 70 21.2 90 90 SE 3 6 29.77 1008 7 11 N/A
3:55 am 03:55 Partly Cloudy 73 22.5 70 21 91 91 ENE 6 9 29.80 1009 7 11 N/A
4:15 am 04:15 Mostly Cloudy 73 22.6 70 21.1 91 91 ESE 5 7 29.80 1009 7 11 N/A
4:35 am 04:35 Partly Cloudy with Light Rain 77 25 58 14.5 52 52 SSW 30 48 29.77 1008 10 16 N/A
4:55 am 04:55 Mostly Cloudy with Drizzle 75 23.9 54 12.4 49 49 SSW 31 50 29.68 1005 7 11 N/A
5:15 am 05:15 Mostly Cloudy with Drizzle 76 24.5 51 10.8 42 42 SSW 24 39 29.62 1003 10 16 N/A
5:35 am 05:35 Partly Cloudy with Nearby Thunderstorms 74 23.5 53 11.7 48 48 SSW 22 35 29.71 1006 10 16 N/A
5:55 am 05:55 Clear 75 23.7 52 11.1 45 45 SSW 21 33 29.71 1006 10 16 N/A
6:15 am 06:15 Clear 74 23.6 51 10.7 44 44 S 20 31 29.71 1006 10 16 N/A
6:35 am 06:35 Sunny 74 23.4 52 11 46 46 S 13 20 29.71 1006 10 16 N/A
6:55 am 06:55 Sunny 73 22.6 52 11.2 49 49 S 9 15 29.74 1007 10 16 N/A
7:15 am 07:15 Sunny 71 21.9 54 12.1 54 54 N 6 9 29.74 1007 10 16 N/A
7:35 am 07:35 Sunny 69 20.3 55 12.8 62 62 N N/A 29.80 1009 10 16 N/A
7:55 am 07:55 Sunny 72 22 55 12.6 55 55 SE 5 7 29.80 1009 10 16 N/A
8:15 am 08:15 Sunny 73 23 54 12.3 51 51 SE 6 9 29.77 1008 10 16 N/A
8:35 am 08:35 Sunny 73 23 60 15.3 62 62 N 3 6 29.80 1009 10 16 N/A
8:55 am 08:55 Sunny 73 22.5 59 14.9 62 62 N 7 11 29.80 1009 10 16 N/A
9:15 am 09:15 Sunny 73 23 60 15.7 64 64 N 6 9 29.80 1009 10 16 N/A
9:35 am 09:35 Sunny 75 23.8 60 15.8 61 61 NNW 6 9 29.80 1009 10 16 N/A
9:55 am 09:55 Sunny 77 24.9 60 15.4 56 56 NNW 3 6 29.80 1009 10 16 N/A
11:35 am 11:35 Sunny 82 27.5 58 14.2 44 44 WNW 8 13 29.80 1009 10 16 N/A
11:55 am 11:55 Sunny 82 27.9 58 14.2 43 43 W 8 13 29.80 1009 10 16 N/A
12:15 pm 12:15 Sunny 83 28.2 57 14.1 42 42 WNW 6 9 29.80 1009 10 16 N/A
12:35 pm 12:35 Sunny 83 28.4 57 13.8 41 41 W 3 6 29.80 1009 10 16 N/A
12:55 pm 12:55 Sunny 84 29.1 59 14.8 42 42 NNW 7 11 29.80 1009 10 16 N/A
1:15 pm 13:15 Sunny 85 29.5 60 15.3 42 42 NNW 9 15 29.80 1009 10 16 N/A
1:35 pm 13:35 Sunny 86 30.1 59 15.1 40 40 NNW 13 20 29.77 1008 10 16 N/A
2:15 pm 14:15 Sunny 87 30.7 61 16.3 42 42 NNW 9 15 29.77 1008 10 16 N/A
2:35 pm 14:35 Sunny 87 30.7 60 15.5 40 40 NNW 6 9 29.77 1008 10 16 N/A
2:55 pm 14:55 Sunny 87 30.7 60 15.5 40 40 NNW 9 15 29.77 1008 10 16 N/A
3:15 pm 15:15 Sunny 87 30.8 59 14.8 38 38 NW 5 7 29.77 1008 10 16 N/A
3:35 pm 15:35 Sunny 88 30.9 59 15.1 38 38 WNW 5 7 29.77 1008 10 16 N/A
3:55 pm 15:55 Sunny 88 31.1 59 14.8 37 37 WSW 5 7 29.77 1008 10 16 N/A
4:15 pm 16:15 Sunny 89 31.6 61 16.2 39 39 NE 8 13 29.77 1008 10 16 N/A
4:35 pm 16:35 Sunny 89 31.5 60 15.6 38 38 N 6 9 29.77 1008 10 16 N/A
4:55 pm 16:55 Sunny 88 31.2 62 16.4 41 41 NE 7 11 29.80 1009 10 16 N/A
5:15 pm 17:15 Sunny 88 31 61 15.9 40 40 NE 8 13 29.80 1009 10 16 N/A
5:55 pm 17:55 Sunny 87 30.5 60 15.3 40 40 NE 6 9 29.80 1009 10 16 N/A
6:15 pm 18:15 Sunny 87 30.4 58 14.4 38 38 NNE 7 11 29.80 1009 10 16 N/A
6:35 pm 18:35 Sunny 85 29.7 59 14.9 41 41 NNE 7 11 29.83 1010 10 16 N/A
6:55 pm 18:55 Sunny 85 29.2 58 14.7 41 41 NNE 6 9 29.83 1010 10 16 N/A
7:15 pm 19:15 Sunny 83 28.6 60 15.7 46 46 NE 6 9 29.83 1010 10 16 N/A
7:35 pm 19:35 Sunny 82 28 63 17.1 52 52 NE 5 7 29.83 1010 10 16 N/A
7:55 pm 19:55 Sunny 80 26.9 64 17.9 58 58 NE 5 7 29.83 1010 10 16 N/A
8:15 pm 20:15 Sunny 78 25.6 63 17.4 61 61 NE 6 9 29.85 1011 10 16 N/A
8:35 pm 20:35 Sunny 76 24.3 63 17 64 64 NNE 5 7 29.85 1011 10 16 N/A
8:55 pm 20:55 Sunny 73 22.6 63 17.4 73 73 NE 5 7 29.88 1012 10 16 N/A
9:15 pm 21:15 Clear 73 22.5 62 16.7 70 70 E 3 6 29.91 1013 10 16 N/A
9:35 pm 21:35 Clear 69 20.7 61 16 75 75 ENE 6 9 29.91 1013 10 16 N/A
9:55 pm 21:55 Clear 68 20.1 61 16.1 78 78 ENE 6 9 29.91 1013 7 11 N/A
10:15 pm 22:15 Clear 66 19.1 61 15.9 82 82 ENE 6 9 29.94 1014 7 11 N/A
10:35 pm 22:35 Clear 66 19 59 15.2 79 79 ENE 7 11 29.94 1014 10 16 N/A
10:55 pm 22:55 Clear 65 18.3 58 14.5 79 79 ESE 6 9 29.97 1015 7 11 N/A
11:15 pm 23:15 Clear 65 18.6 58 14.7 78 78 S 3 6 29.97 1015 10 16 N/A
11:35 pm 23:35 Clear 67 19.3 59 14.9 76 76 N N/A 29.97 1015 10 16 N/A
11:55 pm 23:55 Clear 65 18.5 59 15 80 80 ENE 6 9 29.97 1015 10 16 N/A

Powered by AerisWeather